TimeEST,TemperatureF,Dew PointF,Humidity,Sea Level PressureIn,VisibilityMPH,Wind Direction,Wind SpeedMPH,Gust SpeedMPH,PrecipitationIn,Events,Conditions,WindDirDegrees,DateUTC
12:55 AM,29.5,21.4,72,30.31,10.0,WSW,5.8,-,N/A,,Clear,240,2012-11-29 05:55:00
1:55 AM,28.4,21.0,74,30.32,10.0,SW,6.9,-,N/A,,Clear,230,2012-11-29 06:55:00
2:55 AM,30.6,20.7,67,30.32,10.0,West,5.8,-,N/A,,Clear,280,2012-11-29 07:55:00
3:55 AM,28.0,20.5,73,30.32,10.0,West,5.8,-,N/A,,Clear,270,2012-11-29 08:55:00
4:55 AM,27.3,20.1,74,30.32,10.0,WSW,3.5,-,N/A,,Clear,250,2012-11-29 09:55:00
5:55 AM,28.9,20.5,71,30.34,10.0,West,4.6,-,N/A,,Clear,270,2012-11-29 10:55:00
6:55 AM,27.3,20.1,74,30.35,10.0,WSW,5.8,-,N/A,,Clear,240,2012-11-29 11:55:00
7:55 AM,32.4,21.9,65,30.36,10.0,WSW,9.2,-,N/A,,Clear,240,2012-11-29 12:55:00
8:55 AM,35.1,23.0,61,30.38,10.0,WSW,8.1,-,N/A,,Partly Cloudy,240,2012-11-29 13:55:00
9:55 AM,38.8,24.3,56,30.39,10.0,WSW,10.4,-,N/A,,Partly Cloudy,250,2012-11-29 14:55:00
10:55 AM,43.5,24.4,47,30.38,10.0,WNW,10.4,-,N/A,,Partly Cloudy,300,2012-11-29 15:55:00
11:55 AM,44.4,23.7,44,30.37,10.0,WNW,10.4,-,N/A,,Clear,300,2012-11-29 16:55:00
12:55 PM,46.0,23.7,42,30.35,10.0,WNW,11.5,-,N/A,,Clear,290,2012-11-29 17:55:00
1:55 PM,46.0,23.9,42,30.32,10.0,WNW,9.2,-,N/A,,Clear,290,2012-11-29 18:55:00
2:55 PM,45.5,23.2,41,30.30,10.0,West,11.5,-,N/A,,Clear,260,2012-11-29 19:55:00
3:55 PM,43.9,23.2,44,30.31,10.0,West,9.2,-,N/A,,Clear,280,2012-11-29 20:55:00
4:55 PM,39.4,23.4,53,30.32,10.0,SW,6.9,-,N/A,,Clear,230,2012-11-29 21:55:00
5:55 PM,36.0,23.2,60,30.32,10.0,WSW,9.2,-,N/A,,Clear,240,2012-11-29 22:55:00
6:55 PM,34.7,23.2,63,30.33,10.0,WSW,8.1,-,N/A,,Clear,240,2012-11-29 23:55:00
7:55 PM,33.1,23.0,66,30.34,10.0,WSW,6.9,-,N/A,,Clear,240,2012-11-30 00:55:00
8:55 PM,31.3,23.5,73,30.34,10.0,SW,4.6,-,N/A,,Clear,230,2012-11-30 01:55:00
9:55 PM,32.0,24.1,73,30.34,10.0,West,3.5,-,N/A,,Clear,260,2012-11-30 02:55:00
10:55 PM,29.5,22.8,76,30.33,10.0,WSW,4.6,-,N/A,,Clear,240,2012-11-30 03:55:00
11:55 PM,31.8,25.2,76,30.34,10.0,West,3.5,-,N/A,,Clear,270,2012-11-30 04:55:00